Weather History for Cape Girardeau, MO

Change the Weather History Date:

Wednesday, August 28, 2013

  Actual Average Record
Temperature  
Mean Temperature 80 °F 75 °F  
Max Temperature 92 °F 87 °F 99 °F (2007)
Min Temperature 67 °F 63 °F 48 °F (1967)
Degree Days  
Heating Degree Days 0 0  
Month to date heating degree days 1 0  
Since 1 June heating degree days 1 4  
Since 1 July heating degree days 1 0  
Cooling Degree Days 15 10  
Month to date cooling degree days 284 344  
Year to date cooling degree days 1128 1230  
Since 1 June cooling degree days 957 1078  
Growing Degree Days 28 (Base 50)    
Moisture  
Dew Point 69 °F    
Average Humidity 74    
Maximum Humidity 100    
Minimum Humidity 47    
Precipitation  
Precipitation 0.00 in 0.10 in 1.02 in (1974)
Month to date precipitation 3.53 2.71  
Year to date precipitation 28.23 30.74  
Sea Level Pressure  
Sea Level Pressure 30.03 in    
Wind  
Wind Speed 2 mph (West)    
Max Wind Speed 10 mph    
Max Gust Speed 13 mph    
Visibility 7 miles    
Events Fog    
T = Trace of Precipitation, MM = Missing Value Source: NWS Daily Summary

Daily Weather History Graph

Daily Weather History Graph

Search for Another Location

Airport:

Trip Planner

Search our weather history database for the weather conditions in past years. The results will help you decide how hot, cold, wet, or windy it might be!

Date:

Astronomy

Aug. 28, 2013 Rise Set
Actual Time 6:25 AM CDT 7:32 PM CDT
Civil Twilight 5:58 AM CDT 7:59 PM CDT
Nautical Twilight 5:26 AM CDT 8:31 PM CDT
Astronomical Twilight 4:53 AM CDT 9:04 PM CDT
Moon No Moon Rise 2:06 PM CDT (8/28)
Length of Visible Light 14h 00m
Length of Day
13h 06m
Waning Gibbous, 47% of the Moon is Illuminated
Aug 28
Waning Gibbous
Sep 5
New
Sep 12
First Quarter
Sep 19
Full
Sep 26
Last Quarter

Hourly Weather History & Observations

Time (CDT) Temp. Heat Index Dew Point Humidity Pressure Visibility Wind Dir Wind Speed Gust Speed Precip Events Conditions
12:53 AM 71.1 °F - 69.1 °F 93% 30.04 in 6.0 mi WNW 3.5 mph - N/A   Clear
1:53 AM 70.0 °F - 69.1 °F 97% 30.02 in 4.0 mi Calm Calm - N/A   Clear
2:53 AM 70.0 °F - 68.0 °F 93% 30.02 in 6.0 mi Calm Calm - N/A   Clear
3:53 AM 69.1 °F - 66.9 °F 93% 30.03 in 6.0 mi Calm Calm - N/A   Clear
4:53 AM 69.1 °F - 66.9 °F 93% 30.03 in 4.0 mi Calm Calm - N/A   Clear
5:05 AM 68.0 °F - 66.2 °F 94% 30.03 in 1.8 mi Calm Calm - N/A   Clear
5:14 AM 68.0 °F - 66.2 °F 94% 30.04 in 0.5 mi Calm Calm - N/A Fog Fog
5:35 AM 66.2 °F - 66.2 °F 100% 30.04 in 2.0 mi Calm Calm - N/A   Clear
5:50 AM 66.2 °F - 66.2 °F 100% 30.04 in 5.0 mi Calm Calm - N/A   Clear
5:53 AM 66.9 °F - 66.0 °F 97% 30.04 in 5.0 mi Calm Calm - N/A   Clear
6:43 AM 68.0 °F - 66.2 °F 94% 30.06 in 2.0 mi Calm Calm - N/A   Clear
6:53 AM 68.0 °F - 66.9 °F 96% 30.05 in 2.5 mi Calm Calm - N/A   Clear
7:05 AM 69.8 °F - 68.0 °F 94% 30.06 in 3.0 mi Calm Calm - N/A   Clear
7:53 AM 73.0 °F - 70.0 °F 90% 30.06 in 3.0 mi Calm Calm - N/A   Clear
8:53 AM 78.1 °F - 71.1 °F 79% 30.06 in 8.0 mi West 5.8 mph - N/A   Clear
9:53 AM 81.0 °F 85.2 °F 72.0 °F 74% 30.06 in 10.0 mi WSW 5.8 mph - N/A   Clear
10:53 AM 84.0 °F 90.2 °F 73.0 °F 69% 30.05 in 10.0 mi West 4.6 mph - N/A   Clear
11:53 AM 87.1 °F 94.5 °F 73.0 °F 63% 30.05 in 10.0 mi Variable 3.5 mph - N/A   Clear
12:53 PM 90.0 °F 95.4 °F 70.0 °F 52% 30.03 in 10.0 mi Calm Calm - N/A   Clear
1:53 PM 90.0 °F 95.4 °F 70.0 °F 52% 30.03 in 10.0 mi West 5.8 mph - N/A   Scattered Clouds
2:53 PM 91.0 °F 95.2 °F 68.0 °F 47% 30.01 in 10.0 mi WNW 4.6 mph - N/A   Scattered Clouds
3:53 PM 90.0 °F 94.5 °F 69.1 °F 50% 29.99 in 10.0 mi WSW 8.1 mph - N/A   Clear
4:53 PM 90.0 °F 95.4 °F 70.0 °F 52% 29.99 in 10.0 mi West 5.8 mph - N/A   Clear
5:53 PM 89.1 °F 95.0 °F 71.1 °F 55% 29.99 in 10.0 mi WSW 4.6 mph - N/A   Clear
6:53 PM 84.9 °F 91.4 °F 73.0 °F 67% 29.99 in 10.0 mi WSW 3.5 mph - N/A   Clear
7:53 PM 80.1 °F 83.8 °F 72.0 °F 76% 30.00 in 10.0 mi SSW 3.5 mph - N/A   Clear
8:53 PM 75.9 °F - 72.0 °F 87% 30.01 in 10.0 mi Calm Calm - N/A   Clear
9:53 PM 75.0 °F - 71.1 °F 87% 30.01 in 10.0 mi Calm Calm - N/A   Clear
10:53 PM 73.0 °F - 71.1 °F 93% 30.02 in 9.0 mi Calm Calm - N/A   Clear
11:53 PM 73.0 °F - 70.0 °F 90% 30.01 in 8.0 mi Calm Calm - N/A   Clear